Weather reports worldwide

Advertisment
Lewiston ID, United States of America (72783): temperature & dewpoint: 06.12.2019 07:00:00 - 12.12.2019 07:00:00 (PST)Lewiston ID, United States of America (72783): wind speed: 06.12.2019 07:00:00 - 12.12.2019 07:00:00 (PST)Lewiston ID, United States of America (72783): wind direction: 06.12.2019 07:00:00 - 12.12.2019 07:00:00 (PST)Lewiston ID, United States of America (72783): reduced air pressure: 06.12.2019 07:00:00 - 12.12.2019 07:00:00 (PST)Lewiston ID, United States of America (72783): visibility: 06.12.2019 07:00:00 - 12.12.2019 07:00:00 (PST)Lewiston ID, United States of America (72783): precipitation: 06.12.2019 07:00:00 - 12.12.2019 07:00:00 (PST)
Date & Time tt [°C] td [°C] ff [km/h] ff [kn] dd ppp [hPa] vv [km] rr [mm]
12.12.2019 07:00:00 5,6 1,7 18 10 S 1015,6 16 -
12.12.2019 06:00:00 3,9 1,1 0 0 N 1015,2 16 -
12.12.2019 05:00:00 3,9 1,1 0 0 N 1014,3 16 -
12.12.2019 04:00:00 4,4 1,7 16 9 S 1013,9 16 -
12.12.2019 03:00:00 3,9 2,2 5 3 NW 1014,5 15 0,0
12.12.2019 02:00:00 4,4 2,2 8 4 NNW 1014,0 16 0,0
12.12.2019 01:00:00 4,4 2,2 9 5 ESE 1013,5 16 0,3
12.12.2019 00:00:00 3,3 2,2 0 0 N 1014,3 15 0,3
11.12.2019 23:00:00 3,3 2,2 0 0 N 1015,1 4,8 -
11.12.2019 22:00:00 3,3 2,2 8 4 - 1015,6 10 0,0
11.12.2019 21:00:00 3,3 1,7 5 3 NE 1016,3 8 0,0
11.12.2019 20:00:00 2,8 1,7 5 3 NW 1016,8 2,8 0,0
11.12.2019 19:00:00 2,8 1,7 8 4 ENE 1017,5 8 0,3
11.12.2019 18:00:00 2,8 1,1 0 0 N 1018,0 8 0,8
11.12.2019 17:00:00 2,8 1,1 0 0 N 1018,5 6 0,0
11.12.2019 16:00:00 2,8 1,1 5 3 W 1018,6 6 0,0
11.12.2019 15:00:00 2,8 1,1 9 5 NW 1019,0 4,8 -
11.12.2019 14:00:00 3,9 1,1 5 3 E 1019,2 16 -
11.12.2019 13:00:00 3,3 1,1 9 5 ENE 1019,8 16 -
11.12.2019 12:00:00 2,8 0,0 8 4 ENE 1020,6 16 -
11.12.2019 11:00:00 1,7 0,0 0 0 N 1021,5 11 -
11.12.2019 10:00:00 1,1 -0,6 0 0 N 1022,1 2,0 -
11.12.2019 09:00:00 0,6 -1,1 0 0 N 1021,6 1,2 -
11.12.2019 08:00:00 0,6 -0,6 5 3 SSE 1021,2 3,2 -
11.12.2019 07:00:00 0,0 -1,1 0 0 N 1020,8 10 -
11.12.2019 06:00:00 0,0 -1,1 0 0 N 1020,6 0,8 -
11.12.2019 05:00:00 0,0 -0,6 0 0 N 1020,7 0,8 0,5
11.12.2019 04:00:00 0,6 -0,6 0 0 N 1020,7 3,2 1,0
11.12.2019 03:00:00 0,6 -0,6 0 0 N 1021,0 2,4 0,5
11.12.2019 02:00:00 0,6 -1,1 8 4 SSW 1021,5 16 -
11.12.2019 01:00:00 0,6 -1,1 5 3 S 1021,2 16 -
11.12.2019 00:00:00 1,1 -1,1 15 8 W 1021,5 16 -
10.12.2019 23:00:00 1,1 -1,1 11 6 WSW 1021,6 16 -
10.12.2019 22:00:00 0,0 -1,7 5 3 WNW 1021,3 16 0,0
10.12.2019 21:00:00 0,0 -1,7 0 0 N 1020,9 16 -
10.12.2019 20:00:00 0,6 -1,1 0 0 N 1020,9 16 -
10.12.2019 19:00:00 1,1 -1,1 0 0 N 1021,6 16 -
10.12.2019 18:00:00 0,6 -1,1 0 0 N 1022,3 16 -
10.12.2019 17:00:00 1,1 -1,1 9 5 SSW 1022,7 16 -
10.12.2019 16:00:00 1,1 -1,1 5 3 WSW 1023,0 16 0,0
10.12.2019 15:00:00 2,8 -0,6 5 3 W 1022,4 16 -
10.12.2019 14:00:00 2,8 -0,6 5 3 W 1022,5 16 -
10.12.2019 13:00:00 1,1 -1,1 0 0 N 1023,3 16 -
10.12.2019 12:00:00 0,6 -1,1 8 4 WNW 1024,3 16 -
10.12.2019 11:00:00 0,6 -1,1 0 0 N 1025,5 16 -
10.12.2019 10:00:00 0,0 -1,7 0 0 N 1026,9 16 0,0
10.12.2019 09:00:00 -0,6 -2,2 0 0 N 1026,7 13 -
10.12.2019 08:00:00 -1,1 -2,2 8 4 SSE 1026,6 1,2 -
10.12.2019 07:00:00 -1,1 -2,2 8 4 SE 1026,3 0,8 -
10.12.2019 06:00:00 -0,6 -1,7 9 5 ESE 1026,4 2,8 -
10.12.2019 05:00:00 -0,6 -1,7 11 6 E 1026,4 16 -
10.12.2019 04:00:00 0,0 -1,7 8 4 E 1026,6 4,0 0,0
10.12.2019 03:00:00 -0,6 -1,7 5 3 S 1027,0 0,8 -
10.12.2019 02:00:00 -0,6 -1,1 0 0 N 1027,2 0,4 -
10.12.2019 01:00:00 -0,6 -1,7 5 3 S 1027,2 0,4 -
10.12.2019 00:00:00 -0,6 -1,1 0 0 N 1027,2 0,4 -
09.12.2019 23:00:00 -0,6 -1,1 0 0 N 1027,1 0,8 -
09.12.2019 22:00:00 -0,6 -1,7 5 3 SE 1027,2 1,2 0,0
09.12.2019 21:00:00 -0,6 -1,7 5 3 SSE 1027,0 1,2 -
09.12.2019 20:00:00 -0,6 -1,7 5 3 SE 1026,9 0,8 -
09.12.2019 19:00:00 -0,6 -1,7 5 3 SSE 1026,8 4,8 -
09.12.2019 18:00:00 -0,6 -1,7 0 0 N 1027,2 2,8 -
09.12.2019 17:00:00 0,0 -1,7 5 3 ESE 1026,9 15 -
09.12.2019 16:00:00 0,0 -1,7 8 4 SSE 1027,1 15 0,0
09.12.2019 15:00:00 0,0 -1,1 0 0 N 1026,8 10 -
09.12.2019 14:00:00 0,0 -1,1 0 0 N 1026,5 10 -
09.12.2019 13:00:00 -0,6 -1,7 5 3 SSE 1026,6 6 -
09.12.2019 12:00:00 0,0 -1,7 5 3 SW 1027,0 4,8 -
09.12.2019 11:00:00 -0,6 -1,7 0 0 N 1027,2 10 -
09.12.2019 10:00:00 -0,6 -1,7 9 5 E 1027,3 15 0,0
09.12.2019 09:00:00 -1,1 -2,2 0 0 N 1027,4 0,4 -
09.12.2019 08:00:00 -1,1 -2,2 5 3 NE 1026,8 - -
09.12.2019 07:00:00 -2,2 -3,9 5 3 NW 1025,9 0,4 -
09.12.2019 06:00:00 -1,7 -2,8 0 0 N 1026,3 1,2 -
09.12.2019 05:00:00 -0,6 -2,2 0 0 N 1025,8 1,2 -
09.12.2019 04:00:00 -0,6 -2,2 0 0 N 1025,8 16 0,0
09.12.2019 03:00:00 0,0 -1,7 0 0 N 1025,3 16 -
09.12.2019 02:00:00 0,0 -2,2 8 4 SE 1024,8 10 -
09.12.2019 01:00:00 0,0 -2,2 8 4 SE 1024,3 16 -
09.12.2019 00:00:00 0,0 -2,2 0 0 N 1023,9 16 -
08.12.2019 23:00:00 0,6 -1,7 8 4 - 1023,6 16 -
08.12.2019 22:00:00 2,2 -0,6 0 0 N 1023,2 16 0,0
08.12.2019 21:00:00 1,7 -0,6 9 5 S 1023,2 16 -
08.12.2019 20:00:00 2,2 -0,6 0 0 N 1022,8 16 -
08.12.2019 19:00:00 3,9 0,0 5 3 N 1022,1 16 -
08.12.2019 18:00:00 3,9 0,0 5 3 ESE 1021,6 16 -
08.12.2019 17:00:00 4,4 -0,6 8 4 ENE 1021,0 16 -
08.12.2019 16:00:00 5,0 0,6 5 3 NNE 1020,0 16 0,0
08.12.2019 15:00:00 5,0 1,1 13 7 NNW 1019,2 16 -
08.12.2019 14:00:00 5,6 1,1 9 5 WNW 1018,3 16 -
08.12.2019 13:00:00 5,0 1,7 11 6 NNW 1017,6 16 -
08.12.2019 12:00:00 5,0 1,7 0 0 N 1017,2 16 -
08.12.2019 11:00:00 5,0 2,2 11 6 WSW 1017,2 16 -
08.12.2019 10:00:00 5,0 1,7 16 9 W 1016,2 16 -
08.12.2019 09:00:00 3,9 1,7 13 7 W 1015,4 16 -
08.12.2019 08:00:00 3,9 1,7 11 6 WSW 1014,1 16 -
08.12.2019 07:00:00 4,4 2,2 16 9 W 1013,6 16 0,0
08.12.2019 06:00:00 5,0 2,8 8 4 W 1011,9 16 -
08.12.2019 05:00:00 5,6 2,8 15 8 WNW 1010,7 16 0,0
08.12.2019 04:00:00 6,1 4,4 5 3 W 1009,9 16 0,3
08.12.2019 03:00:00 6,7 5,0 0 0 N 1009,4 16 -
08.12.2019 02:00:00 6,7 4,4 5 3 W 1009,0 16 -
08.12.2019 01:00:00 6,1 4,4 0 0 N 1008,6 16 0,0
08.12.2019 00:00:00 6,1 5,0 5 3 W 1008,5 4,8 0,0
07.12.2019 23:00:00 6,7 5,0 0 0 N 1008,0 16 0,5
07.12.2019 22:00:00 6,7 5,0 9 5 NE 1008,2 13 0,5
07.12.2019 21:00:00 7,2 5,0 0 0 N 1008,1 16 0,0
07.12.2019 20:00:00 8,3 5,0 0 0 N 1008,0 16 1,0
07.12.2019 19:00:00 8,3 5,0 16 9 ESE 1008,1 16 0,5
07.12.2019 18:00:00 8,3 4,4 13 7 ESE 1008,5 16 0,3
07.12.2019 17:00:00 8,3 4,4 15 8 ESE 1008,8 16 0,0
07.12.2019 16:00:00 8,3 4,4 15 8 E 1008,9 16 0,0
07.12.2019 15:00:00 8,3 5,6 9 5 E 1009,0 15 0,5
07.12.2019 14:00:00 9,4 5,0 9 5 E 1009,0 16 0,5
07.12.2019 13:00:00 11,1 3,3 16 9 S 1008,9 16 -
07.12.2019 12:00:00 10,0 2,8 13 7 SSE 1009,7 16 -
07.12.2019 11:00:00 8,9 3,3 0 0 N 1010,4 16 -
07.12.2019 10:00:00 7,8 2,2 0 0 N 1010,9 16 0,0
07.12.2019 09:00:00 6,1 1,7 8 4 E 1010,8 16 -
07.12.2019 08:00:00 3,9 0,6 9 5 NE 1010,6 16 -
07.12.2019 07:00:00 5,6 0,6 11 6 E 1010,1 16 -
07.12.2019 06:00:00 5,0 0,6 15 8 E 1010,6 16 -
07.12.2019 05:00:00 4,4 0,6 16 9 ESE 1010,9 16 -
07.12.2019 04:00:00 3,9 1,1 8 4 N 1011,4 16 -
07.12.2019 03:00:00 4,4 1,1 5 3 SSE 1012,2 16 0,3
07.12.2019 02:00:00 5,0 0,6 11 6 NE 1012,7 16 0,0
07.12.2019 01:00:00 4,4 0,0 5 3 ESE 1013,2 16 -
07.12.2019 00:00:00 2,8 0,0 5 3 SSE 1013,7 16 -
06.12.2019 23:00:00 2,8 0,0 0 0 N 1014,6 16 -
06.12.2019 22:00:00 3,9 0,0 0 0 N 1014,7 16 0,0
06.12.2019 21:00:00 5,6 0,6 13 7 E 1015,0 16 -
06.12.2019 20:00:00 5,0 0,6 9 5 ENE 1015,3 16 -
06.12.2019 19:00:00 5,0 0,0 9 5 E 1015,7 16 -
06.12.2019 18:00:00 5,6 0,6 8 4 ENE 1016,0 16 -
06.12.2019 17:00:00 6,7 0,6 8 4 ESE 1016,3 16 -
06.12.2019 16:00:00 7,2 1,1 15 8 E 1016,4 16 0,0
06.12.2019 15:00:00 7,8 1,1 16 9 E 1016,4 16 -
06.12.2019 14:00:00 8,3 1,1 5 3 - 1016,9 16 -
06.12.2019 13:00:00 7,8 1,1 9 5 NNW 1017,9 16 -
06.12.2019 12:00:00 8,3 0,6 13 7 SE 1018,4 16 -
06.12.2019 11:00:00 6,7 0,6 5 3 SE 1019,5 16 -
06.12.2019 10:00:00 5,6 0,0 5 3 SSE 1019,9 16 0,0
06.12.2019 09:00:00 6,7 0,0 21 11 SE 1019,6 16 -
06.12.2019 08:00:00 3,9 -0,6 29 16 E 1019,6 16 -
06.12.2019 07:00:00 3,9 -1,1 24 13 ESE 1019,7 16 -

tt = temperature
td = dewpoint
ff = wind speed
dd = wind direction
ppp = reduced air pressure
vv = visibility
rr = precipitation

Next stations